Weather History for Leadville, CO

Change the Weather History Date:

Saturday, December 21, 2013

  Actual Average Record
Temperature  
Mean Temperature 10 °F -  
Max Temperature 19 °F 29 °F 41 °F (1985)
Min Temperature 1 °F 4 °F -17 °F (1983)
Degree Days  
Heating Degree Days 55 49  
Month to date heating degree days 1056 1011  
Since 1 July heating degree days 4283 4416  
Cooling Degree Days 0 0  
Month to date cooling degree days 0 0  
Year to date cooling degree days 0 0  
Moisture  
Dew Point 4 °F    
Average Humidity 72    
Maximum Humidity 87    
Minimum Humidity 56    
Precipitation  
Precipitation T in 0.03 in 0.06 in (1987)
Month to date precipitation 0.65 0.52  
Year to date precipitation 17.59 12.22  
Sea Level Pressure  
Sea Level Pressure 29.62 in    
Wind  
Wind Speed 9 mph (NNW)    
Max Wind Speed 15 mph    
Max Gust Speed 21 mph    
Visibility 9 miles    
Events Snow    
T = Trace of Precipitation, MM = Missing Value Source: NWS Daily Summary

Daily Weather History Graph

Daily Weather History Graph

Search for Another Location

Airport:

Trip Planner

Search our weather history database for the weather conditions in past years. The results will help you decide how hot, cold, wet, or windy it might be!

Date:

Astronomy

Dec. 21, 2013 Rise Set
Actual Time 7:21 AM MST 4:45 PM MST
Civil Twilight 6:51 AM MST 5:15 PM MST
Nautical Twilight 6:17 AM MST 5:49 PM MST
Astronomical Twilight 5:44 AM MST 6:22 PM MST
Moon 9:03 PM MST (12/21) 9:50 AM MST (12/21)
Length of Visible Light 10h 24m
Length of Day
9h 24m
Waning Gibbous, 84% of the Moon is Illuminated
Dec 21
Waning Gibbous
Dec 25
Last Quarter
Jan 1
New
Jan 7
First Quarter
Jan 15
Full

Hourly Weather History & Observations

Time (MST) Temp. Windchill Dew Point Humidity Pressure Visibility Wind Dir Wind Speed Gust Speed Precip Events Conditions
12:53 AM 6.1 °F -7.8 °F 1.0 °F 80% 29.58 in 10.0 mi North 9.2 mph - N/A   Clear
1:53 AM 3.9 °F -8.2 °F -0.9 °F 80% 29.57 in 10.0 mi North 6.9 mph - N/A   Clear
2:53 AM 1.9 °F -13.8 °F -2.0 °F 83% 29.59 in 10.0 mi North 10.4 mph - N/A   Clear
3:53 AM 1.9 °F -10.6 °F -2.9 °F 80% 29.57 in 10.0 mi North 6.9 mph - N/A   Clear
4:53 AM 1.0 °F -12.9 °F -4.0 °F 79% 29.58 in 10.0 mi NNE 8.1 mph - N/A   Clear
5:53 AM 1.9 °F -11.8 °F -5.1 °F 72% 29.59 in 10.0 mi NNE 8.1 mph - N/A   Clear
6:53 AM 6.1 °F -6.8 °F -2.0 °F 69% 29.58 in 10.0 mi North 8.1 mph - N/A   Overcast
7:53 AM 9.0 °F -5.1 °F 3.0 °F 77% 29.57 in 10.0 mi North 10.4 mph - N/A   Overcast
8:53 AM 12.0 °F 2.7 °F 5.0 °F 73% 29.58 in 10.0 mi North 5.8 mph - N/A   Overcast
9:53 AM 15.1 °F 2.5 °F 6.1 °F 68% 29.56 in 10.0 mi North 10.4 mph - N/A   Clear
10:53 AM 17.1 °F 5.0 °F 6.1 °F 62% 29.56 in 10.0 mi NW 10.4 mph - N/A   Mostly Cloudy
11:29 AM 17.1 °F 10.0 °F 6.1 °F 62% 29.54 in 10.0 mi NNW 4.6 mph - N/A   Mostly Cloudy
11:36 AM 17.1 °F 8.7 °F 6.1 °F 62% 29.53 in 10.0 mi NNW 5.8 mph - N/A   Partly Cloudy
11:53 AM 19.0 °F 9.0 °F 6.1 °F 57% 29.55 in 10.0 mi North 8.1 mph - N/A   Mostly Cloudy
12:53 PM 18.0 °F 6.1 °F 8.1 °F 65% 29.55 in 8.0 mi NW 10.4 mph - 0.00 in Snow Light Snow
1:07 PM 18.0 °F 4.8 °F 8.1 °F 65% 29.52 in 3.0 mi NW 12.7 mph - 0.00 in Snow Light Snow
1:14 PM 18.0 °F 12.7 °F 9.0 °F 68% 29.52 in 2.5 mi NNW 3.5 mph - 0.00 in Snow Light Snow
1:38 PM 18.0 °F 6.9 °F 9.0 °F 68% 29.53 in 4.0 mi NW 9.2 mph - 0.00 in Snow Light Snow
1:53 PM 17.1 °F 10.0 °F 9.0 °F 71% 29.57 in 5.0 mi NW 4.6 mph - 0.00 in Snow Light Snow
2:06 PM 18.0 °F 11.1 °F 9.0 °F 68% 29.53 in 2.5 mi Variable 4.6 mph - 0.00 in Snow Light Snow
2:13 PM 18.0 °F 7.7 °F 9.0 °F 68% 29.53 in 9.0 mi NNW 8.1 mph - 0.00 in   Overcast
2:35 PM 18.0 °F 6.1 °F 8.1 °F 65% 29.55 in 10.0 mi NNW 10.4 mph - 0.00 in   Overcast
2:53 PM 17.1 °F 5.0 °F 7.0 °F 65% 29.61 in 10.0 mi North 10.4 mph - 0.00 in   Overcast
3:06 PM 17.1 °F 5.0 °F 8.1 °F 68% 29.56 in 10.0 mi North 10.4 mph - N/A   Overcast
3:25 PM 17.1 °F 3.6 °F 7.0 °F 65% 29.56 in 10.0 mi NNW 12.7 mph - N/A   Overcast
3:38 PM 16.0 °F 3.6 °F 8.1 °F 71% 29.57 in 5.0 mi NNW 10.4 mph - 0.00 in Snow Light Snow
3:53 PM 17.1 °F 5.0 °F 8.1 °F 68% 29.63 in 9.0 mi NNW 10.4 mph - 0.00 in   Overcast
4:53 PM 12.9 °F 2.6 °F 7.0 °F 77% 29.71 in 10.0 mi NW 6.9 mph - 0.00 in   Overcast
5:53 PM 12.0 °F 1.5 °F 6.1 °F 77% 29.74 in 10.0 mi NNW 6.9 mph - N/A   Overcast
6:53 PM 10.9 °F 0.2 °F 6.1 °F 81% 29.75 in 8.0 mi NNW 6.9 mph - N/A   Overcast
7:53 PM 10.9 °F -2.6 °F 5.0 °F 77% 29.77 in 4.0 mi North 10.4 mph - N/A   Haze
8:53 PM 10.0 °F -1.9 °F 3.9 °F 76% 29.77 in 7.0 mi NW 8.1 mph - 0.00 in Snow Light Snow
9:53 PM 9.0 °F -7.3 °F 1.0 °F 70% 29.78 in 10.0 mi North 13.8 mph - 0.00 in   Overcast
10:23 PM 8.1 °F -4.3 °F -0.0 °F 70% 29.75 in 10.0 mi North 8.1 mph - N/A   Overcast
10:53 PM 8.1 °F -5.3 °F 1.0 °F 73% 29.79 in 10.0 mi North 9.2 mph - N/A   Overcast
11:04 PM 8.1 °F -5.3 °F 1.0 °F 73% 29.76 in 10.0 mi North 9.2 mph - N/A   Overcast
11:11 PM 8.1 °F -4.3 °F 1.0 °F 73% 29.76 in 10.0 mi North 8.1 mph - N/A   Overcast
11:53 PM 6.1 °F -7.8 °F 1.0 °F 80% 29.81 in 10.0 mi North 9.2 mph - N/A   Overcast